Regional Weather Roundup
Issued by NWS Wakefield, VA

Home | Current Version | Previous Version | Text Only | Print | Product List | Glossary On
Versions: 1 2 3 4 5 6 7 8 9 10 11 12 13 14 15 16 17 18 19 20 21 22 23 24 25 26 27 28 29 30 31 32 33 34 35 36 37 38 39 40 41 42 43 44 45 46 47 48 49 50
000
ASUS41 KAKQ 310110
RWRAKQ

REGIONAL WEATHER ROUNDUP
NATIONAL WEATHER SERVICE WAKEFIELD VA
800 PM EST FRI JAN 30 2015

Note: "fair" indicates few or no clouds below 12,000 feet with no
significant weather and/or obstructions to visibility. * = Denotes
station may not report precipitation (e.g., rain,snow,etc.),
thunder or fog.

VAZ042-051-052>054-056-310200-
NORTHERN VIRGINIA

CITY           SKY/WX    TMP DP  RH WIND       PRES   REMARKS
WASH NATIONAL  CLEAR     28   6  39 NW22G38   30.23R WCI  14
DULLES         PTCLDY    23   6  48 NW33G41   30.23R WCI   5
FORT BELVOIR   CLEAR     26   8  46 NW24G33   30.23R WCI  11
QUANTICO       CLEAR     27   7  42 N21G37    30.27R WCI  13
FREDERICKSBRG* CLEAR     30   9  42 NW13G33   30.23R WCI  20
STAFFORD*      CLEAR     27   5  39 NW24G33   30.27S WCI  12
WARRENTON      CLEAR     27  14  57 NW23G32   30.23R WCI  12
CULPEPER*      CLEAR     27   9  46 N9G16     30.24R
MANASSAS*      NOT AVBL
LEESBURG*      CLEAR     23  12  63 NW26G38   30.25R WCI   6
WINCHESTER     MOCLDY    23   5  46 NW18G31   30.28S WCI   9
FRONT ROYAL*   FAIR      23   9  54 NW14G23   30.27R WCI  11
LURAY*         FAIR      27  10  50 N3G17     30.26R
$$

VAZ048-049-060>072-079>083-310200-
CENTRAL AND SOUTH CENTRAL VIRGINIA

CITY           SKY/WX    TMP DP  RH WIND       PRES   REMARKS
RICHMOND       CLEAR     32   9  38 NW14G21   30.20R WCI  22
CHESTERFIELD*  FAIR      30   5  34 NW10G18   30.21R WCI  21
PETERSBURG*    CLEAR     33   8  35 NW6       30.22R
HANOVER        CLEAR     31   8  38 VRB6      30.22R
TAPPAHANNOCK*  CLEAR     31   4  31 NW14G25   30.20R WCI  21
QUINTON*       FAIR      32  10  39 NW15G23   30.19R WCI  22
CHARLOTTSVILLE PTCLDY    28   5  37 VRB3      30.23R
GORDONSVILLE*  FAIR      28   6  39 NW13G18   30.22R WCI  18
ORANGE*        CLEAR     30   9  40 NW12G21   30.25R WCI  21
LOUISA*        CLEAR     28  10  47 NW9G18    30.21R
BUMPASS*       FAIR      30   9  41 NW7       30.22R
FARMVILLE*     CLEAR     31   8  36 NW7       30.21S
CREWE*         FAIR      31   6  35 NW9       30.22R
FORT PICKETT*  FAIR      31   7  37 NW13G21   30.22R WCI  21
CHASE CITY*    FAIR      33  10  37 NW12G17   30.23R WCI  25
CLARKSVILLE*   FAIR      32  12  43 NW9       30.23R
SOUTH HILL*    CLEAR     31  10  43 N6        30.28R
LAWRENCEVILLE* FAIR      32   9  38 NW7       30.21R
EMPORIA*       FAIR      32  10  40 W8G20     30.23R
$$

VAZ088>098-310200-
SOUTHEAST VIRGINIA

CITY           SKY/WX    TMP DP  RH WIND       PRES   REMARKS
NORFOLK        CLEAR     36  12  37 N16G26    30.15R
VIRGINIA BEACH CLEAR     36  14  40 NW24G36   30.13R WCI  24
NORFOLK NAVAL  PTCLDY    37  12  35 NW23G30   30.17R
WEST POINT*    CLEAR     34   8  33 NW12G18   30.20R
SALUDA*        FAIR      32  12  44 NW22G32   30.16R WCI  19
NEWPORT NEWS   CLEAR     36  10  34 NW14G24   30.17R
LANGLEY AFB    CLEAR     34  12  40 NW14G23   30.16R WCI  24
FORT EUSTIS    CLEAR     35  15  45 N14G26    30.16R
WILLIAMSBURG*    N/A     36  12  38 NW16      30.18R
HR EXEC AP*    FAIR      34  10  37 NW6       30.18R
FRANKLIN*      CLEAR     33  11  39 NW7       30.19R
WAKEFIELD      CLEAR     34   9  35 VRB5      30.19R
$$

VAZ020-022-025-037-045-310200-
WEST CENTRAL AND SOUTHWEST VIRGINIA

CITY           SKY/WX    TMP DP  RH WIND       PRES   REMARKS
STAUNTON*      CLEAR     25   8  48 W5        30.25R
WAYNESBORO*    FAIR      23   7  48 NW7G22    30.20R
HOT SPRINGS VA MOCLDY    13   6  73 NW14G31   30.04R WCI  -2
LYNCHBURG      CLEAR     28   6  39 VRB7      30.24R
DANVILLE       CLEAR     31   8  38 NW16G23   30.27R WCI  20
SOUTH BOSTON*  FAIR      31   7  36 NW15      30.25S WCI  20
MARTINSVILLE   CLEAR     29   8  41 N3        30.29R
ROANOKE        PTCLDY    26   8  46 NW16G25   30.28S WCI  14
BLACKSBURG     CLEAR     21   8  57 W8        30.26S
DUBLIN*        CLEAR     25  11  54 NW10G20   30.25R WCI  15
MARION*        CLEAR     26   9  48 W15G28    30.27R WCI  13
HILLSVILLE*    CLEAR     24   7  48 NW16G23   30.19R WCI  10
RICHLANDS*     FAIR      22   7  51 NW6       30.29R
WISE*          CLEAR     27  10  50 NW7       30.32R
ABINGDON*      CLEAR     30  12  46 NW9G17    30.32R
$$

MDZ021>025-VAZ099-100-310200-
SOUTHERN MARYLAND AND THE DELMARVA PENINSULA

CITY           SKY/WX    TMP DP  RH WIND       PRES   REMARKS
PATUXENT RIVER CLEAR     29   9  43 NW21G33   30.15R WCI  16
BAY BRIDGE APT   N/A     28  12  50 NW23G36   30.18R WCI  14
LEONARDTOWN    CLEAR     28   9  43 W15G26    30.18S WCI  17
DOVER          CLEAR     28  13  52 NW18G33   30.09R WCI  16
GEORGETOWN     CLEAR     30  12  47 NW12G23   30.09R WCI  20
EASTON         CLEAR     28  12  50 NW31G46   30.18  WCI  12
CAMBRIDGE      NOT AVBL
SALISBURY      CLEAR     32  13  45 NW16G23   30.10R WCI  21
OCEAN CITY     CLEAR     30  13  49 NW12G30   30.08R WCI  20
WALLOPS ISLAND CLEAR     31  13  47 NW22G30   30.10R WCI  18
ACCOMACK*      CLEAR     32  14  47 NW23G38   30.12R WCI  19
$$

NCZ012>017-030>032-310200-
NORTH CENTRAL AND EASTERN NORTH CAROLINA

CITY           SKY/WX    TMP DP  RH WIND       PRES   REMARKS
ROANOKE RAPIDS FAIR      36  12  38 NW14G20   30.21R
RALEIGH        CLEAR     36   7  29 VRB6      30.25R
ELIZABETH CITY PTCLDY    36  15  42 NW26G33   30.14R WCI  24
AHOSKIE*       CLEAR     35   9  33 N10       30.19R
EDENTON*       PTCLDY    38  20  49 N14G21    30.15R
CURRITUCK*     PTCLDY    37  11  33 NW12G23   30.14R
KILL DEVIL HLS MOCLDY    38  21  51 NW10G20   30.10R
MANTEO         MOCLDY    37  19  48 NW16G24   30.12R
CAPE HATTERAS  MOCLDY    40  32  73 VRB5      30.10R
TARBORO*       FAIR      38  12  35 NW8       30.20R
GOLDSBORO      CLEAR     48  18  29 NW14G23   30.09R
WASHINGTON     CLEAR     39  14  36 NW9G16    30.17R
GREENVILLE     CLEAR     37  14  38 N12G18    30.19S
NEW BERN       CLEAR     43  14  31 NW12G23   30.17R
WILMINGTON     CLEAR     43  19  38 NW14      30.19R
$$

VAZ048-310200-
ELSEWHERE

CITY           SKY/WX    TMP DP  RH WIND       PRES   REMARKS
HARRISBURG PA  PTCLDY    22   6  50 NW23G36   30.19R WCI   6
BALTIMORE      PTCLDY    24   8  50 NW18G37   30.18R WCI  10
ANNAPOLIS      CLEAR     27  10  49 NW22G37   30.17R WCI  13
ANDREWS AFB    CLEAR     26   8  46 W25G31    30.19R WCI  10
PHILADELPHIA   MOCLDY    30  11  45 NW26G37   30.08R WCI  16
HENDERSON NC   CLEAR     32   6  34 NW12G20   30.23R WCI  23
GREENSBORO     CLEAR     32   7  35 N6        30.25R
ROCKY MOUNT    CLEAR     37  12  35 NW12G21   30.21R
$$

VAZ100-310200-
MARINE

STATION/POSITION TIME  TEMP    WIND        PRES    WAVE   SWELL
                       AIR SEA DIR/SP/G            HT/PER HT/PER
                 (UTC) (F)     (DEG/KT/KT) (MB)    (FT/S) (FT/S)
BRANDYWINE LGT   0100   31 36  330/ 25/ 39 1017.6R
CAPE MAY NJ      0100   31 36              1016.9F
LEWES DE         0100   31 36  310/ 32/ 37 1017.6F
15NM E FENWICK I 0100   33 40              1016.0R   7/ 6
OCEAN-CITY-INLET 0100   31 38  330/ 20/ 28 1017.8R
WACHAPREAGUE VA  0100   32 38  290/  7/ 18 1019.6R
THOMAS POINT MD  0100   27 36  320/ 32/ 36 1021.7R
GOOSES REEF MD   0100   29 36  VRB 27/ 35  1020.0R   4/ 3
COVE POINT MD    0100   29     330/ 29/ 39 1020.6R
SOLOMONS ISLAND  0100      37                N/A
BISHOPS HEAD MD  0100   30 34  310/ 22/ 31 1020.3R
PINEY POINT MD   0100          340/ 32/ 37   N/A
POTOMAC MD       0100   32 38  330/ 25/ 29 1020.1R   3/ 3
CAMBRIDGE MD     0100   29 35  310/ 23/ 34 1020.7R
LEWISETTA VA     0100   31 36  320/ 22/ 28 1021.5R
RAPPAHANNOCK LGT 0100          310/ 30/ 34 1020.5R
STINGRAY PT      0100   33 38  320/ 27/ 33 1021.2R   3/ 3
YORK RVR RNG VA  0100   35     330/ 26/ 32 1020.6R
YORKTOWN VA      0100   35 39  320/ 15/ 27 1021.3R
JAMESTOWN VA     0100   34 40  350/ 17/ 23   N/A     1/ 3
DOMINION TERM VA 0100   36     350/  7/ 25 1021.2R
KIPTOPEKE VA     0100      43  320/ 32/ 37   N/A
CHES BAY BRIDGE  0100   36 39  310/ 27/ 32 1020.4R
CAPE HENRY VA    0100   36     310/ 34/ 40 1019.0R
CHESAPEAKE LGHT  0000   37     320/ 38/ 41 1019.1R
WILLOUBY STN VA  0100   36     320/ 22/ 27 1021.6R
S CRANEY ISL VA  0100          330/ 16/ 25 1021.0R
CAPE HENRY BUOY  0000      42                N/A     7/ 5
1ST LANDING BUOY 0100   36 39  320/ 29/ 35 1020.0R   5/ 4
CAPE CHARLES BUO 0100      41                N/A     5/ 4   2/10
OFFSHORE WE BUOY 0100      43                N/A     9/ 6   2/11
64NM E OF VA BCH 0100   39 49  320/ 31/ 37 1016.9R  11/ 7
DUCK PIER NC     0100   39 44  320/ 26/ 31 1018.4S
44100 DUCK FRF   0100      45                N/A     8/ 6
44056 DUCK FRF   0100      43                N/A     5/ 6
OREGON INLET NC  0100   39 42  320/ 13/ 18 1019.4R
HATTERAS NC      0100   41 46   10/ 12/ 16 1019.5R



USA.gov is the U.S. government's official web portal to all federal, state and local government web resources and services.